Hourly Weather Lanzhou

Today, 29 September, Tuesday

Time Temperature Precipitation Wind Pressure Humidity
00:00 +16°C° 0 mm 1 mps 623 mmHg 62%
01:00 +16°C° 0 mm 1 mps 623 mmHg 62%
02:00 +14°C° 0 mm 0 mps 623 mmHg 63%
03:00 +14°C° 0 mm 0 mps 623 mmHg 64%
04:00 +13°C° 0 mm 0 mps 622 mmHg 65%
05:00 +14°C° 0 mm 0 mps 622 mmHg 64%
06:00 +14°C° 0 mm 0 mps 622 mmHg 63%
07:00 +14°C° 0 mm 0 mps 623 mmHg 60%
08:00 +16°C° 0 mm 1 mps 623 mmHg 55%
09:00 +18°C° 0 mm 1 mps 623 mmHg 51%
10:00 +19°C° 0 mm 1 mps 623 mmHg 46%
11:00 +21°C° 0 mm 1 mps 623 mmHg 43%
12:00 +21°C° 0 mm 2 mps 622 mmHg 41%
13:00 +22°C° 0 mm 3 mps 622 mmHg 38%
14:00 +22°C° 0 mm 3 mps 621 mmHg 37%
15:00 +23°C° 0 mm 4 mps 621 mmHg 37%
16:00 +23°C° 0 mm 5 mps 621 mmHg 36%
17:00 +22°C° 0 mm 4 mps 621 mmHg 39%
18:00 +21°C° 0 mm 4 mps 621 mmHg 42%
19:00 +20°C° 0 mm 3 mps 620 mmHg 44%
20:00 +20°C° 0 mm 3 mps 621 mmHg 46%
21:00 +20°C° 0 mm 3 mps 621 mmHg 48%
22:00 +19°C° 0 mm 3 mps 621 mmHg 49%
23:00 +19°C° 0 mm 3 mps 620 mmHg 52%

Tomorrow, 30 September, Wednesday

Time Temperature Precipitation Wind Pressure Humidity
00:00 +18°C° 0 mm 2 mps 620 mmHg 54%
01:00 +18°C° 0 mm 2 mps 620 mmHg 57%
02:00 +18°C° 0.2 mm 2 mps 619 mmHg 60%
03:00 +17°C° 0.2 mm 2 mps 619 mmHg 63%
04:00 +17°C° 0.2 mm 2 mps 619 mmHg 66%
05:00 +16°C° 0.9 mm 2 mps 619 mmHg 71%
06:00 +16°C° 0.9 mm 2 mps 619 mmHg 75%
07:00 +15°C° 0.9 mm 1 mps 619 mmHg 80%
08:00 +16°C° 0 mm 1 mps 619 mmHg 79%
09:00 +16°C° 0 mm 2 mps 619 mmHg 78%
10:00 +16°C° 0 mm 2 mps 620 mmHg 77%
11:00 +16°C° 0.3 mm 3 mps 620 mmHg 74%
12:00 +15°C° 0.3 mm 4 mps 620 mmHg 72%
13:00 +15°C° 0.3 mm 5 mps 620 mmHg 69%
14:00 +14°C° 0.1 mm 5 mps 620 mmHg 67%
15:00 +13°C° 0.1 mm 5 mps 620 mmHg 66%
16:00 +13°C° 0.1 mm 6 mps 620 mmHg 65%
17:00 +12°C° 0.3 mm 5 mps 620 mmHg 67%
18:00 +11°C° 0.3 mm 4 mps 620 mmHg 69%
19:00 +10°C° 0.3 mm 4 mps 620 mmHg 71%
20:00 +10°C° 0.4 mm 3 mps 621 mmHg 70%
21:00 +10°C° 0.4 mm 3 mps 621 mmHg 69%
22:00 +10°C° 0.4 mm 2 mps 622 mmHg 68%
23:00 +10°C° 0 mm 2 mps 621 mmHg 65%

Day after tomorrow, 1 October, Thursday

Time Temperature Precipitation Wind Pressure Humidity
00:00 +10°C° 0 mm 2 mps 621 mmHg 63%
01:00 +11°C° 0 mm 1 mps 621 mmHg 60%
02:00 +11°C° 0 mm 1 mps 621 mmHg 60%
03:00 +11°C° 0 mm 1 mps 621 mmHg 59%
04:00 +10°C° 0 mm 0 mps 621 mmHg 58%
05:00 +10°C° 0 mm 0 mps 621 mmHg 58%
06:00 +10°C° 0 mm 0 mps 621 mmHg 57%
07:00 +11°C° 0 mm 1 mps 621 mmHg 56%
08:00 +12°C° 0 mm 1 mps 621 mmHg 53%
09:00 +13°C° 0 mm 1 mps 621 mmHg 50%
10:00 +14°C° 0 mm 1 mps 621 mmHg 46%
11:00 +15°C° 0 mm 1 mps 621 mmHg 44%
12:00 +16°C° 0 mm 2 mps 621 mmHg 42%
13:00 +17°C° 0 mm 2 mps 622 mmHg 39%
14:00 +18°C° 0 mm 3 mps 622 mmHg 39%
15:00 +18°C° 0 mm 4 mps 622 mmHg 40%
16:00 +17°C° 0 mm 5 mps 622 mmHg 40%
17:00 +16°C° 0 mm 5 mps 622 mmHg 40%
18:00 +15°C° 0 mm 5 mps 622 mmHg 40%
19:00 +14°C° 0 mm 4 mps 622 mmHg 41%
20:00 +14°C° 0 mm 4 mps 622 mmHg 40%
21:00 +14°C° 0 mm 3 mps 623 mmHg 38%
22:00 +15°C° 0 mm 2 mps 623 mmHg 37%
23:00 +14°C° 0 mm 2 mps 623 mmHg 39%

2 October, Friday

Time Temperature Precipitation Wind Pressure Humidity
00:00 +14°C° 0 mm 2 mps 622 mmHg 41%
01:00 +13°C° 0 mm 1 mps 622 mmHg 44%
02:00 +13°C° 0 mm 1 mps 621 mmHg 43%
03:00 +13°C° 0 mm 1 mps 621 mmHg 43%
04:00 +13°C° 0 mm 1 mps 621 mmHg 43%
05:00 +13°C° 0 mm 1 mps 621 mmHg 42%
06:00 +13°C° 0 mm 1 mps 621 mmHg 41%
07:00 +13°C° 0 mm 1 mps 622 mmHg 40%
08:00 +14°C° 0 mm 1 mps 622 mmHg 37%
09:00 +15°C° 0 mm 2 mps 622 mmHg 35%
10:00 +15°C° 0 mm 2 mps 622 mmHg 32%
11:00 +15°C° 0 mm 4 mps 622 mmHg 31%
12:00 +15°C° 0 mm 5 mps 622 mmHg 31%
13:00 +15°C° 0 mm 6 mps 622 mmHg 30%
14:00 +15°C° 0 mm 6 mps 622 mmHg 31%
15:00 +14°C° 0 mm 6 mps 622 mmHg 32%
16:00 +13°C° 0 mm 5 mps 622 mmHg 33%
17:00 +12°C° 0.1 mm 4 mps 623 mmHg 37%
18:00 +12°C° 0.1 mm 3 mps 623 mmHg 41%
19:00 +12°C° 0.1 mm 2 mps 623 mmHg 45%
20:00 +12°C° 0 mm 2 mps 623 mmHg 47%
21:00 +10°C° 0 mm 2 mps 624 mmHg 49%
22:00 +11°C° 0 mm 1 mps 624 mmHg 51%
23:00 +11°C° 0 mm 1 mps 624 mmHg 54%

3 October, Saturday

Time Temperature Precipitation Wind Pressure Humidity
00:00 +11°C° 0 mm 1 mps 623 mmHg 57%
01:00 +10°C° 0 mm 1 mps 623 mmHg 61%
02:00 +10°C° 0 mm 1 mps 623 mmHg 62%
03:00 +9°C° 0 mm 0 mps 622 mmHg 63%
04:00 +9°C° 0 mm 0 mps 622 mmHg 64%
05:00 +9°C° 0 mm 0 mps 622 mmHg 63%
06:00 +9°C° 0 mm 0 mps 622 mmHg 63%
07:00 +9°C° 0 mm 0 mps 623 mmHg 62%
08:00 +10°C° 0 mm 0 mps 623 mmHg 57%
09:00 +11°C° 0 mm 0 mps 623 mmHg 51%
10:00 +14°C° 0 mm 1 mps 623 mmHg 46%
11:00 +14°C° 0 mm 1 mps 623 mmHg 44%
12:00 +15°C° 0 mm 2 mps 622 mmHg 41%
13:00 +16°C° 0 mm 2 mps 622 mmHg 39%
14:00 +16°C° 0 mm 3 mps 622 mmHg 37%
15:00 +17°C° 0 mm 4 mps 623 mmHg 36%
16:00 +16°C° 0 mm 5 mps 623 mmHg 35%
17:00 +16°C° 0 mm 5 mps 623 mmHg 36%
18:00 +15°C° 0 mm 4 mps 624 mmHg 37%
19:00 +16°C° 0 mm 3 mps 624 mmHg 38%
20:00 +14°C° 0.1 mm 3 mps 624 mmHg 42%
21:00 +13°C° 0.1 mm 3 mps 625 mmHg 47%
22:00 +13°C° 0.1 mm 3 mps 625 mmHg 51%
23:00 +13°C° 0 mm 3 mps 624 mmHg 53%

4 October, Sunday

Time Temperature Precipitation Wind Pressure Humidity
00:00 +13°C° 0 mm 2 mps 624 mmHg 55%
01:00 +13°C° 0 mm 1 mps 624 mmHg 57%
02:00 +13°C° 0 mm 1 mps 623 mmHg 56%
03:00 +13°C° 0 mm 1 mps 623 mmHg 55%
04:00 +13°C° 0 mm 1 mps 623 mmHg 53%
05:00 +13°C° 0 mm 1 mps 623 mmHg 54%
06:00 +13°C° 0 mm 1 mps 623 mmHg 55%
07:00 +13°C° 0 mm 1 mps 623 mmHg 56%
08:00 +13°C° 0 mm 1 mps 623 mmHg 56%
09:00 +14°C° 0 mm 1 mps 623 mmHg 56%
10:00 +14°C° 0 mm 1 mps 623 mmHg 56%
11:00 +15°C° 0 mm 1 mps 623 mmHg 55%
12:00 +16°C° 0 mm 2 mps 623 mmHg 54%
13:00 +16°C° 0 mm 2 mps 622 mmHg 53%
14:00 +17°C° 0 mm 3 mps 622 mmHg 53%
15:00 +17°C° 0 mm 3 mps 622 mmHg 53%
16:00 +17°C° 0 mm 4 mps 622 mmHg 53%
17:00 +15°C° 0 mm 4 mps 622 mmHg 57%
18:00 +14°C° 0 mm 3 mps 622 mmHg 61%
19:00 +14°C° 0 mm 3 mps 622 mmHg 65%
20:00 +13°C° 0 mm 3 mps 622 mmHg 66%
21:00 +14°C° 0 mm 2 mps 623 mmHg 68%
22:00 +14°C° 0 mm 1 mps 623 mmHg 70%
23:00 +13°C° 0 mm 1 mps 623 mmHg 72%
Show more